Nur fliegen ist schöner ....

Willkommen beim Flugservice Bautzen GmbH

Wir sind eine nach europäischen Richtlinien zugelassene Flugschule und lizenziertes Luftfahrtunternehmen. Bei uns können sie nicht nur Rundflüge über die Oberlausitz oder Sachsen buchen, sondern in unserer Flugschule selber das Fliegen erlernen. Erfahrene Fluglehrer stehen Ihnen dabei zur Seite.

Wir bieten Ihnen außerdem spezielle Flüge zur Vermessung oder Fotoflüge für Luftbildaufnahmen an. In Zusammenarbeit mit dem Fallschirmsportclub Dresden und dem Cottbuser Fallschirmsportclub setzen wir am Flugplatz Bautzen und Neuhausen Fallschirmspringer ab.
Schauen Sie sich in Ruhe bei uns um und wenn Sie Fragen haben oder weitere Informationen benötigen, scheuen Sie sich nicht Kontakt mit uns aufzunehmen.

Gutscheine für Rundflüge und Tandemsprünge können Sie ganz leicht auch online in unserem Shop erwerben.

Terminkalender

Letzter Monat November 2022 Nächster Monat
Mo Di Mi Do Fr Sa So
week 44 1 2 3 4 5 6
week 45 7 8 9 10 11 12 13
week 46 14 15 16 17 18 19 20
week 47 21 22 23 24 25 26 27
week 48 28 29 30

Flugwetterinfo

[Quelle: ADDS]
METAR
EDDC 281820Z AUTO 16012KT CAVOK 04/01 Q1014 =
EDDC 281700Z 2818/2918 15010KT 9999 BKN025 PROB40 TEMPO 2821/2909 4500 -RADZ BKN012
TAF
EDDC 281700Z 2818/2918 15010KT 9999 BKN025 PROB40 TEMPO 2821/2909 4500 -RADZ BKN012 =
SR / SS: 06:39 / 15:00 UTC (EDAB Flugplatz Bautzen 2022-11-28)

Öffnungszeiten

des Flugplatzes Bautzen erfahren Sie hier:

flugplatz bautzen logo
Flugservice Bautzen GmbH, Kornmarkt 34, 02625 Bautzen  Telefon: +49 (3591) 211105, Telefax: +49 (3591) 274512, E-Mail:  flugservice(at)fsbautzen.de
Wir benutzen Cookies
Wir nutzen nur Cookies auf unserer Website, die essenziell für den Betrieb der Seite sind. Sie können selbst entscheiden, ob Sie die Cookies zulassen möchten. Bitte beachten Sie, dass bei einer Ablehnung womöglich nicht mehr alle Funktionalitäten der Seite zur Verfügung stehen.